www.pogodaiklimat.ru
ПОГОДА в Овасе
Время
(UTC), дата
19 16.10
21 16.10
22 16.10
23 16.10
00 17.10
02 17.10
03 17.10
04 17.10
05 17.10
06 17.10
07 17.10
08 17.10
09 17.10
10 17.10
11 17.10
12 17.10
13 17.10
14 17.10
15 17.10
16 17.10
17 17.10
18 17.10
19 17.10
20 17.10
21 17.10
22 17.10
23 17.10
00 18.10
01 18.10
02 18.10
03 18.10
04 18.10
05 18.10
06 18.10
09 18.10
10 18.10
11 18.10
12 18.10
13 18.10
14 18.10
15 18.10
16 18.10
17 18.10
18 18.10
19 18.10
20 18.10
21 18.10
22 18.10
23 18.10
00 19.10
01 19.10
02 19.10
03 19.10
04 19.10
05 19.10
06 19.10
08 19.10
09 19.10
10 19.10
11 19.10
12 19.10
13 19.10
14 19.10
15 19.10
16 19.10
17 19.10
18 19.10
19 19.10
20 19.10
21 19.10
22 19.10
23 19.10
00 20.10
01 20.10
03 20.10
04 20.10
05 20.10
06 20.10
07 20.10
08 20.10
09 20.10
10 20.10
11 20.10
12 20.10
13 20.10
14 20.10
15 20.10
16 20.10
17 20.10
18 20.10
19 20.10
20 20.10
21 20.10
22 20.10
23 20.10
00 21.10
01 21.10
02 21.10
03 21.10
04 21.10
05 21.10
06 21.10
07 21.10
08 21.10
09 21.10
10 21.10
11 21.10
12 21.10
14 21.10
15 21.10
16 21.10
17 21.10
18 21.10
19 21.10
20 21.10
21 21.10
22 21.10
23 21.10
00 22.10
01 22.10
02 22.10
03 22.10
04 22.10
05 22.10
06 22.10
07 22.10
08 22.10
09 22.10
10 22.10
11 22.10
12 22.10
13 22.10
14 22.10
15 22.10
16 22.10
17 22.10
18 22.10
19 22.10
20 22.10
21 22.10
22 22.10
23 22.10
00 23.10
01 23.10
02 23.10
03 23.10
04 23.10
05 23.10
06 23.10
07 23.10
08 23.10
09 23.10
10 23.10
11 23.10
12 23.10
13 23.10
14 23.10
15 23.10
16 23.10
17 23.10
18 23.10
19 23.10
Ветер
(напр.,м/с)
Видим. Явления Облачность Т
(С)
Тd
(С)
f
(%)
Тe
(С)
Тes
(С)
Комфортность P
(гПа)
Po
(гПа)
Тmin
(С)
Tmax
(С)
R
(мм)
R24
(мм)
S
(см)
З 1 19 км слаб. дождь н/о +18.7 +16.9 89 +21 +21 комфорт 1022.3 1020.3
З 2 8000 м слаб. дождь н/о +18.0 +17.0 94 +19 +19 тепло 1023.1 1021.1
Ю 1 4600 м слаб. дождь н/о +17.8 +17.5 98 +19 +19 тепло 1023.4 1021.4
З 2 17 км в посл. час дождь н/о +18.1 +17.3 95 +19 +19 тепло 1023.4 1021.4
ЮЗ 1 17 км слаб. дождь н/о +18.6 +17.6 94 +21 +21 комфорт 1023.8 1021.8 +17.7 0.5
ЮВ 1 14 км слаб. дождь н/о +19.5 +17.6 89 +23 +23 комфорт 1023.3 1021.3
З 2 6000 м слаб. дождь н/о +19.1 +17.4 90 +21 +21 комфорт 1022.9 1020.9
З 3 3900 м слаб. дождь н/о +19.1 +18.1 94 +21 +21 комфорт 1022.3 1020.3
Ю 2 4200 м слаб. дождь н/о +19.1 +18.5 96 +22 +22 комфорт 1022.1 1020.1
ЮЗ 2 6000 м слаб. дождь н/о +19.1 +18.5 96 +22 +22 комфорт 1022.1 1020.1 1
З 4 17 км слаб. дождь н/о +19.1 +18.3 95 +21 +21 комфорт 1022.4 1020.4
ЮЗ 2 20 км в посл. час дождь н/о +18.9 +18.1 95 +21 +21 комфорт 1022.4 1020.4
З 3 20 км слаб. дождь н/о +18.8 +17.3 91 +20 +20 тепло 1022.5 1020.5
ЮЗ 1 20 км в посл. час дождь н/о +18.6 +17.1 91 +21 +21 комфорт 1022.9 1020.9
З 1 20 км н/о +18.5 +17.5 94 +20 +20 тепло 1023.4 1021.4
СЗ 1 11 км слаб. дождь н/о +18.4 +17.9 97 +21 +21 комфорт 1023.6 1021.6 +19.7 2
СЗ 1 5000 м слаб. дождь н/о +18.4 +18.2 99 +21 +21 комфорт 1023.7 1021.7
З 1 5000 м слаб. дождь н/о +18.4 +18.4 100 +21 +21 комфорт 1023.7 1021.7
СВ 1 11 км слаб. дождь н/о +18.5 +18.5 100 +20 +20 тепло 1022.7 1020.7
З 2 7000 м слаб. дождь н/о +18.7 +18.5 99 +21 +21 комфорт 1023.1 1021.1
З 1 3900 м слаб. дождь н/о +18.7 +18.7 100 +22 +22 комфорт 1023.0 1021.0
ЮЗ 1 3600 м слаб. дождь н/о +18.6 +18.6 100 +21 +21 комфорт 1022.6 1020.6 5
З 2 4500 м слаб. дождь н/о +18.8 +18.8 100 +21 +21 комфорт 1022.6 1020.6
ЮЗ 1 4100 м слаб. дождь н/о +18.9 +18.9 100 +22 +22 комфорт 1022.7 1020.7
З 2 3900 м слаб. дождь н/о +19.0 +19.0 100 +21 +21 комфорт 1022.9 1020.9
ЮЗ 2 14 км слаб. дождь н/о +19.1 +18.9 99 +22 +22 комфорт 1023.0 1021.0
З 2 2400 м дождь н/о +19.2 +19.0 99 +22 +22 комфорт 1023.5 1021.5
ЮЗ 2 3500 м дождь н/о +19.3 +18.8 97 +22 +22 комфорт 1023.7 1021.7 +18.3 24
З 3 2500 м дождь н/о +19.2 +18.9 98 +22 +22 комфорт 1023.5 1021.5
ЮЗ 1 2100 м дождь н/о +19.1 +18.8 98 +22 +22 комфорт 1023.6 1021.6
Ю 1 2400 м дождь н/о +19.2 +19.2 100 +23 +23 комфорт 1022.9 1020.9
Ю 2 1900 м дождь н/о +19.1 +19.1 100 +22 +22 комфорт 1022.1 1020.1
ЮЗ 1 1700 м дождь н/о +19.1 +19.1 100 +22 +22 комфорт 1021.5 1019.5
ЮВ 1 1000 м сильн. дождь н/о +19.0 +19.0 100 +22 +22 комфорт 1021.2 1019.2 79
ЮВ 5 1700 м сильн. дождь н/о +21.3 +20.3 94 +26 +26 душно 1018.6 1016.6
В 10 1300 м сильн. дождь н/о +21.3 +20.1 93 +26 +26 душно 1019.4 1017.4
С 4 600 м сильн. дождь н/о +20.7 +20.2 97 +25 +25 комфорт 1020.5 1018.5
ЮВ 2 200 м сильн. дождь н/о +20.1 +20.1 100 +24 +24 комфорт 1019.9 1017.9 +21.7 431
С 2 1100 м сильн. дождь н/о +19.9 +19.9 100 +24 +24 комфорт 1019.4 1017.4
З 3 2100 м сильн. дождь н/о +19.7 +19.7 100 +23 +23 комфорт 1018.7 1016.7
З 2 4000 м дождь н/о +19.7 +19.2 97 +23 +23 комфорт 1017.7 1015.7
З 2 3900 м дождь н/о +19.4 +19.1 98 +22 +22 комфорт 1017.7 1015.7
С 1 4100 м дождь н/о +19.3 +19.1 99 +23 +23 комфорт 1016.9 1014.9
ЮЗ 2 20 км слаб. дождь н/о +19.2 +19.2 100 +22 +22 комфорт 1016.6 1014.6 128
ЮВ 1 17 км слаб. дождь н/о +19.2 +19.2 100 +23 +23 комфорт 1016.3 1014.3
З 1 20 км слаб. дождь н/о +19.2 +19.2 100 +22 +22 комфорт 1016.0 1014.0
З 2 20 км слаб. дождь н/о +19.2 +19.2 100 +22 +22 комфорт 1016.2 1014.2
З 2 20 км в посл. час дождь н/о +19.4 +19.4 100 +23 +23 комфорт 1016.4 1014.4
З 1 20 км н/о +19.8 +19.7 99 +24 +24 комфорт 1016.9 1014.9
З 1 7000 м слаб. дождь н/о +20.5 +19.9 96 +26 +26 душно 1016.6 1014.6 +19.1 132
С 1 8000 м слаб. дождь н/о +21.9 +19.7 87 +27 +27 душно 1015.7 1013.7
СВ 1 5000 м слаб. дождь н/о +21.4 +20.9 97 +27 +27 душно 1015.7 1013.7
СЗ 2 1100 м сильн. дождь н/о +21.1 +21.1 100 +26 +26 душно 1015.2 1013.2
СЗ 3 3000 м дождь н/о +20.9 +20.9 100 +27 +27 душно 1014.0 1012.0
З 2 10 км слаб. дождь н/о +21.3 +21.3 100 +27 +27 душно 1013.6 1011.6
В 1 20 км в посл. час дождь н/о +23.1 +21.0 88 +31 +31 очень
душно
1012.9 1010.9 39
ЮЗ 1 20 км н/о +22.4 +21.4 94 +29 +29 очень
душно
1013.7 1011.7
З 2 20 км н/о +21.7 +21.4 98 +28 +28 душно 1014.0 1012.0
З 2 20 км н/о +21.0 +20.8 99 +27 +27 душно 1014.6 1012.6
З 1 17 км н/о +21.1 +20.9 99 +26 +26 душно 1015.4 1013.4
ЮЗ 1 20 км н/о +21.0 +20.8 99 +27 +27 душно 1015.3 1013.3 +23.3 39
З 2 20 км н/о +21.2 +21.0 99 +27 +27 душно 1015.0 1013.0
ЮЗ 2 20 км н/о +20.8 +20.8 100 +27 +27 душно 1015.0 1013.0
З 1 18 км н/о +20.6 +20.6 100 +26 +26 душно 1015.0 1013.0
З 1 11 км н/о +20.1 +20.1 100 +25 +25 комфорт 1014.5 1012.5
З 2 12 км н/о +19.9 +19.9 100 +24 +24 комфорт 1014.6 1012.6
З 1 17 км н/о +19.5 +19.5 100 +23 +23 комфорт 1014.8 1012.8
З 2 20 км н/о +19.5 +19.5 100 +23 +23 комфорт 1015.0 1013.0
З 2 20 км н/о +19.3 +19.3 100 +22 +22 комфорт 1015.6 1013.6
З 2 20 км н/о +19.0 +18.8 99 +21 +21 комфорт 1015.6 1013.6
З 1 20 км н/о +19.0 +18.7 98 +22 +22 комфорт 1016.4 1014.4
штиль 0 20 км н/о +20.1 +18.6 91 +23 +23 комфорт 1016.7 1014.7
В 1 20 км н/о +21.9 +17.3 75 +26 +26 душно 1017.5 1015.5 +18.8
В 2 20 км н/о +23.4 +16.9 67 +29 +29 душно 1017.4 1015.4
В 2 20 км н/о +24.7 +15.1 55 +28 +28 душно 1016.7 1014.7
В 2 20 км н/о +25.4 +15.4 54 +28 +28 жарко 1016.2 1014.2
В 2 20 км н/о +24.6 +14.7 54 +27 +27 жарко 1015.8 1013.8
Ю 2 20 км н/о +24.4 +15.9 59 +28 +28 душно 1015.9 1013.9
Ю 1 20 км н/о +23.4 +18.1 72 +29 +29 душно 1016.3 1014.3
З 2 20 км н/о +21.7 +18.5 82 +26 +26 душно 1016.9 1014.9
З 2 20 км н/о +20.4 +18.2 87 +25 +25 комфорт 1017.1 1015.1
З 2 20 км н/о +19.5 +17.8 90 +23 +23 комфорт 1017.5 1015.5
З 2 20 км н/о +18.9 +17.4 91 +21 +21 комфорт 1017.9 1015.9
ЮЗ 1 20 км н/о +18.9 +17.6 92 +21 +21 комфорт 1018.1 1016.1 +25.5
З 3 20 км н/о +18.5 +17.0 91 +19 +19 тепло 1018.1 1016.1
З 2 20 км н/о +18.1 +16.6 91 +19 +19 тепло 1017.8 1015.8
З 1 20 км н/о +17.9 +16.8 93 +19 +19 тепло 1017.6 1015.6
З 3 20 км н/о +17.9 +16.1 89 +18 +18 тепло 1017.5 1015.5
З 2 20 км н/о +18.2 +16.0 87 +19 +19 тепло 1017.2 1015.2
ЮЗ 2 20 км н/о +18.5 +16.3 87 +20 +20 тепло 1016.7 1014.7
СЗ 2 20 км слаб. дождь н/о +18.1 +17.0 93 +19 +19 тепло 1016.8 1014.8
З 2 15 км слаб. дождь н/о +18.5 +18.2 98 +20 +20 тепло 1016.2 1014.2
Ю 2 4800 м дождь н/о +18.8 +18.8 100 +21 +21 комфорт 1016.8 1014.8
ЮЗ 2 4600 м слаб. дождь н/о +19.1 +19.1 100 +22 +22 комфорт 1017.2 1015.2
З 2 10 км слаб. дождь н/о +19.6 +19.5 99 +23 +23 комфорт 1017.7 1015.7
СЗ 2 2800 м дождь н/о +19.6 +19.5 99 +23 +23 комфорт 1017.2 1015.2 +17.7 14
С 4 6000 м дождь н/о +20.0 +18.7 92 +23 +23 комфорт 1017.2 1015.2
В 3 9000 м слаб. дождь н/о +20.6 +18.0 85 +25 +25 комфорт 1017.4 1015.4
З 3 7000 м слаб. дождь н/о +19.7 +19.2 97 +23 +23 комфорт 1015.8 1013.8
С 1 3100 м дождь н/о +19.4 +19.1 98 +23 +23 комфорт 1015.7 1013.7
С 3 4200 м дождь н/о +19.2 +17.5 90 +21 +21 комфорт 1014.6 1012.6
С 4 4000 м дождь н/о +19.1 +17.1 88 +21 +21 комфорт 1014.1 1012.1 19
С 5 7000 м дождь н/о +19.2 +17.4 89 +21 +21 комфорт 1014.0 1012.0
СВ 4 5000 м дождь н/о +19.3 +17.8 91 +21 +21 комфорт 1013.5 1011.5
Ю 2 3600 м дождь н/о +19.2 +18.2 94 +22 +22 комфорт 1013.1 1011.1
СВ 2 2200 м дождь н/о +19.4 +17.2 87 +22 +22 комфорт 1013.0 1011.0
С 3 1400 м сильн. дождь н/о +18.7 +17.6 93 +20 +20 тепло 1013.4 1011.4
С 3 3000 м дождь н/о +19.0 +17.0 88 +21 +21 комфорт 1013.4 1011.4 +20.6 70
З 3 3700 м дождь н/о +18.0 +16.5 91 +18 +18 тепло 1012.8 1010.8
З 3 16 км слаб. дождь н/о +18.1 +15.9 87 +18 +18 тепло 1011.1 1009.1
С 3 20 км слаб. дождь н/о +17.9 +15.5 86 +18 +18 тепло 1010.6 1008.6
З 2 20 км слаб. дождь н/о +17.2 +16.1 93 +18 +18 тепло 1010.1 1008.1
З 3 20 км слаб. дождь н/о +16.9 +16.3 96 +17 +17 тепло 1009.1 1007.1 17
З 3 20 км слаб. дождь н/о +16.8 +16.3 97 +17 +17 тепло 1009.3 1007.3
З 2 20 км слаб. дождь н/о +16.9 +16.1 95 +17 +17 тепло 1009.4 1007.4
СЗ 1 20 км слаб. дождь н/о +16.7 +16.6 99 +18 +18 тепло 1010.1 1008.1
З 1 20 км в посл. час дождь н/о +16.9 +16.8 99 +18 +18 тепло 1010.1 1008.1
З 2 20 км н/о +17.9 +17.1 95 +19 +19 тепло 1010.3 1008.3
ЮВ 2 20 км {дождь} н/о +19.6 +17.0 85 +23 +23 комфорт 1010.1 1008.1 +16.6 18
З 1 20 км н/о +21.8 +15.4 67 +25 +25 комфорт 1010.4 1008.4
СВ 3 20 км н/о +23.5 +16.6 65 +27 +27 душно 1009.9 1007.9
В 4 20 км н/о +24.8 +15.2 55 +28 +28 жарко 1009.9 1007.9
ЮВ 2 20 км н/о +25.2 +14.1 50 +28 +28 жарко 1009.5 1007.5
СЗ 2 20 км н/о +26.3 +13.4 45 +28 +28 жарко 1009.1 1007.2
В 3 20 км н/о +25.6 +14.7 51 +28 +28 жарко 1009.5 1007.5
Ю 2 20 км н/о +23.2 +16.0 64 +28 +28 душно 1010.1 1008.1
З 3 20 км н/о +21.4 +15.9 71 +25 +25 комфорт 1010.7 1008.7
З 2 20 км н/о +19.5 +16.2 81 +22 +22 комфорт 1011.4 1009.4
З 2 20 км н/о +18.3 +15.6 84 +19 +19 тепло 1012.0 1010.0
З 2 20 км н/о +17.9 +15.4 85 +19 +19 тепло 1012.5 1010.5
З 2 20 км н/о +17.1 +14.8 86 +18 +18 тепло 1012.9 1010.9 +26.7
З 2 20 км н/о +16.9 +14.7 87 +17 +17 тепло 1013.1 1011.1
З 1 20 км н/о +16.4 +14.8 90 +17 +17 тепло 1013.2 1011.2
З 3 20 км н/о +15.8 +14.3 91 +15 +15 тепло 1012.7 1010.7
З 3 20 км н/о +15.8 +14.0 89 +15 +15 тепло 1013.4 1011.4
З 3 20 км н/о +15.3 +13.7 90 +15 +15 тепло 1013.3 1011.3
З 2 20 км н/о +15.2 +13.6 90 +15 +15 тепло 1013.4 1011.4
З 3 20 км н/о +15.1 +13.3 89 +15 +15 тепло 1013.8 1011.8
З 2 20 км н/о +14.7 +13.4 92 +15 +15 тепло 1014.3 1012.3
З 2 20 км н/о +14.6 +13.2 91 +14 +14 тепло 1014.8 1012.8
З 2 20 км н/о +15.9 +13.6 86 +16 +16 тепло 1015.1 1013.1
ЮЗ 2 20 км н/о +18.6 +14.1 75 +20 +20 тепло 1015.7 1013.7
ЮВ 1 20 км н/о +21.0 +14.4 66 +25 +25 комфорт 1016.0 1014.0 +14.4
В 2 20 км н/о +22.4 +14.5 61 +26 +26 жарко 1015.9 1013.9
СВ 5 20 км н/о +23.8 +14.5 56 +26 +26 жарко 1015.5 1013.5
СВ 6 20 км н/о +24.4 +14.5 54 +27 +27 жарко 1015.1 1013.1
СВ 5 20 км н/о +24.1 +14.8 56 +27 +27 жарко 1014.8 1012.8
СВ 4 20 км н/о +23.9 +15.4 59 +27 +27 жарко 1015.1 1013.1
ЮВ 2 20 км н/о +23.7 +15.2 59 +27 +27 жарко 1015.5 1013.5
З 1 20 км н/о +22.7 +16.3 67 +27 +27 душно 1015.8 1013.8
В 1 20 км н/о +21.4 +16.8 75 +25 +25 комфорт 1016.4 1014.4
ЮЗ 1 20 км н/о +20.6 +17.2 81 +25 +25 комфорт 1017.5 1015.5
З 1 20 км н/о +20.2 +17.2 83 +24 +24 комфорт 1018.0 1016.0
З 2 20 км н/о +19.4 +16.8 85 +22 +22 комфорт 1018.4 1016.4
СЗ 1 20 км н/о +19.3 +16.7 85 +22 +22 комфорт 1018.9 1016.9 +25.0
ЮЗ 1 20 км н/о +18.6 +16.8 89 +21 +21 комфорт 1019.2 1017.2
З 2 20 км н/о +18.5 +16.7 89 +20 +20 тепло 1018.7 1016.7
С 1 20 км н/о +19.0 +16.1 83 +21 +21 комфорт 1018.9 1016.9
З 2 20 км н/о +18.7 +16.5 87 +20 +20 тепло 1018.6 1016.6
СЗ 2 20 км н/о +18.9 +16.3 85 +21 +21 комфорт 1018.3 1016.3
ЮЗ 2 6000 м дождь н/о +18.3 +17.5 95 +20 +20 тепло 1018.5 1016.5 2
Ю 2 20 км слаб. дождь н/о +18.2 +17.9 98 +19 +19 тепло 1018.7 1016.7
Местоположение метеостанции Овасе (Япония): широта 34.07 долгота 136.20 высота над уровнем моря 27 м.
В архиве по умолчанию представлена погода в Овасе за последнюю неделю. Архивные данные за месяц целиком и за предыдущие месяцы, начиная с января 2011 года, Вы можете получить, выбрав интересующий диапазон дат из раскрывающегося списка и нажав кнопку "Найти!".
*Определитесь, кто Вы:
Внимание! Время в таблицах - всемирное. Для получения местного времени необходимо прибавить поправку, которая равна 9 ч.
Смотрите также архив погоды в соседних городах и на ближайших метеорологических станциях:
Партнеры нашего сайта:      
Пояснения к столбцам:
  • Ветер - указаны скорость ветра в м/с - средняя за 10 мин, порывы в срок и между сроками (в фигурных скобках) и направление, откуда дует ветер: С - северный,
  • СВ - северо-восточный, В - восточный, ЮВ - юго-восточный, Ю - южный, ЮЗ - юго-западный, З - западный, СЗ - северо-западный.
  • Видимость - горизонтальная дальность видимости в метрах или километрах. При видимости от 1 до 10 км при отсутствии осадков обычно наблюдается дымка, при ухудшении видимости до 1 км и менее - туман. В сухую погоду видимость может ухудшаться дымом, пылью или мглою.
  • Явления - указаны атмосферные явления, наблюдавшиеся в срок или в последний час перед сроком; фигурными скобками обозначены явления, наблюдавшиеся между сроками (за 1-3 часа до срока); квадратными скобками обозначены град или гололедные отложения с указанием их диаметра в мм.
  • Облачность - указаны через наклонную черту общая и нижняя облачность в баллах и высота нижней границы облаков в метрах; квадратными скобками обозначены формы облаков: Ci - перистые, Cs - перисто-слоистые, Cc - перисто-кучевые, Ac - высококучевые, As - высокослоистые, Sc - слоисто-кучевые, Ns - слоисто-дождевые, Cu - кучевые, Cb - кучево-дождевые. Подробнее классификацию облаков см. в Атласе облаков (PDF).
  • T - Температура воздуха - температура, измеренная на высоте 2 м над землей.
  • Td - Температура точки росы - температура, при понижении до которой содержащийся в воздухе водяной пар достигнет насыщения.
  • f - Относительная влажность воздуха - влажноcть воздуха, измеренная на высоте 2 м над землей.
  • Te - Эффективная температура - температура, которую ощущает одетый по сезону человек в тени. Характеристика душности погоды. При расчете учитывается влияние влажности воздуха и скорости ветра на теплоощущения человека.
  • Tes - Эффективная температура на солнце - температура, которую ощущает человек, с поправкой на солнечный нагрев. Характеристика знойности погоды. Зависит от высоты солнца над горизонтом, облачности и скорости ветра. Ночью, в пасмурную погоду, а также при ветре 12 м/с и более поправка равна нулю.
  • P - Атмосферное давление - приведенное к уровню моря атмосферное давление.
  • Po - Атмосферное давление - измеренное на уровне метеостанции атмосферное давление.
  • Tmin - Минимальная температура - минимум температуры воздуха на высоте 2 м над землей.
  • Tmax - Максимальная температура - максимум температуры воздуха на высоте 2 м над землей.
  • R - Количество осадков - Количество выпавших осадков за период времени, мм. При наведении курсора мыши на число - период времени, за который выпало указанное количество осадков.
  • R24 - Количество осадков - Количество выпавших осадков за 24 часа, мм.
  • S - Снежный покров - Высота снежного покрова, см. При наведении курсора мыши на число - состояние снежного покрова и степень покрытия местности в баллах.